DW2270 Weather Reports


time (UTC)temp
C
wind
direction
speed
KPH
gust
KPH
rain 1hr
cm
rain 24hr
cm
rain mn
cm
humidity
%
barometer
mb
20260502123802 12 344 0.0 4.8 0.00 4.62 0.03 2 1018.8
20260502122739 11 248 0.0 3.2 0.00 4.88 0.03 2 1018.6
20260502121741 11 271 0.0 3.2 0.00 4.95 0.03 2 1018.5
20260502120758 11 347 0.0 0.0 0.00 5.08 0.00 2 1018.4
20260502115740 11 347 0.0 0.0 0.00 5.36 0.00 3 1018.3
20260502114739 11 347 0.0 0.0 0.00 5.44 0.00 3 1018.3
20260502113713 11 347 0.0 0.0 0.00 5.49 0.00 3 1018.2
20260502112644 11 347 0.0 0.0 0.00 5.54 0.00 3 1018.1
20260502111615 11 347 0.0 0.0 0.00 5.64 0.00 3 1017.9
20260502110617 11 347 0.0 0.0 0.00 5.89 0.00 3 1017.8
20260502105551 11 347 0.0 0.0 0.00 5.99 0.00 3 1017.7
20260502104605 11 347 0.0 0.0 0.00 6.05 0.00 3 1017.6
20260502103543 11 347 0.0 0.0 0.00 6.10 0.00 3 1017.5
20260502102530 11 348 0.0 0.0 0.00 6.10 0.00 3 1017.5
20260502101541 11 333 0.0 3.2 0.00 6.15 0.00 3 1017.3
20260502100517 11 348 0.0 0.0 0.00 6.17 0.00 3 1017.2
20260502091432 12 350 0.0 0.0 0.00 6.65 0.00 3 1016.3
20260502090435 12 350 0.0 0.0 0.00 6.65 0.00 3 1016.1
20260502071106 12 298 0.0 1.6 0.00 7.16 0.00 1 1016.1
20260502070117 12 315 0.0 8.0 0.00 7.16 0.00 1 1016.2
20260502065100 12 347 0.0 0.0 0.00 7.16 0.00 1 1015.9
20260502064113 12 298 0.0 6.4 0.00 7.16 0.00 1 1016.0
20260502061955 12 313 0.0 12.9 0.00 7.19 0.00 1 1015.8
20260502060957 12 343 0.0 12.9 0.00 7.21 0.00 1 1015.7
20260502054916 12 94 0.0 6.4 0.00 7.29 0.00 1 1015.7
20260502053907 12 346 0.0 11.3 0.00 7.29 0.00 1 1015.8
20260502051804 13 83 0.0 6.4 0.00 7.32 0.00 1 1015.8
20260502050742 13 0 0.0 12.9 0.00 7.32 0.00 1 1015.8
20260502045806 13 320 1.6 12.9 0.00 7.32 7.32 1 1015.7
20260502044830 13 327 0.0 8.0 0.00 7.32 7.32 1 1015.7
20260502043808 13 260 0.0 8.0 0.00 7.32 7.32 1 1015.7
20260502042806 13 314 0.0 1.6 0.00 7.37 7.32 1 1015.6
20260502041756 13 346 1.6 14.5 0.00 7.39 7.32 1 1015.6
20260502040736 13 334 0.0 11.3 0.00 7.39 7.32 1 1015.6
20260502035729 13 304 1.6 11.3 0.00 7.39 7.32 1 1015.7
20260502034717 13 329 0.0 6.4 0.00 7.39 7.32 1 1015.7
20260502032558 13 218 0.0 3.2 0.00 7.39 7.32 1 1015.5
20260502030430 13 79 0.0 6.4 0.00 7.39 7.32 1 1015.1
20260502025426 13 355 1.6 12.9 0.00 7.39 7.32 1 1014.8
20260502015805 13 334 0.0 11.3 0.00 7.39 7.32 1 1014.1
20260502014817 13 322 0.0 11.3 0.00 7.39 7.32 1 1013.8
20260502013810 13 55 0.0 9.7 0.00 7.39 7.32 1 1013.4
20260502011648 14 264 0.0 11.3 0.00 7.39 7.32 1 1013.9
20260502010613 14 123 0.0 11.3 0.10 7.39 7.32 1 1013.7
20260502005614 14 77 1.6 11.3 0.23 7.39 7.32 1 1012.4
20260502003442 15 339 0.0 8.0 0.15 7.32 7.26 1 1012.7
20260502002458 15 288 0.0 8.0 0.15 7.29 7.24 1 1013.0
20260502001520 15 219 0.0 0.0 0.15 7.29 7.21 1 1012.8
20260502000454 15 273 0.0 6.4 0.20 7.26 7.19 1 1012.5
20260501234330 15 323 0.0 1.6 0.20 7.14 7.09 1 1012.4
20260501233307 15 320 0.0 1.6 0.33 7.11 7.06 1 1012.1
20260501232305 15 319 0.0 3.2 0.15 7.04 6.99 1 1011.1
20260501231259 15 312 0.0 6.4 0.30 7.04 6.96 1 1011.1
20260501225038 15 311 3.2 12.9 0.00 6.76 6.68 1 1010.5
20260501224055 15 327 1.6 12.9 0.00 6.76 6.68 1 1009.8
20260501222010 16 350 1.6 11.3 0.00 6.76 6.68 1 1009.8
20260501221033 16 317 0.0 8.0 0.15 6.76 6.68 1 1010.5
20260501214850 16 281 0.0 11.3 0.30 6.68 6.60 1 1011.4
20260501213855 16 288 0.0 4.8 0.79 6.60 6.55 1 1011.3
20260501212920 16 349 0.0 4.8 0.53 6.50 6.43 1 1011.1
20260501211927 16 318 0.0 14.5 0.23 6.45 6.40 1 1011.3
20260501210937 16 5 1.6 14.5 0.15 6.43 6.35 1 1010.3
20260501205951 16 342 0.0 11.3 0.13 6.38 6.30 1 1009.2
20260501203836 16 30 0.0 12.9 0.15 6.32 6.25 1 1010.4
20260501202832 16 209 1.6 12.9 0.46 6.27 6.25 1 1009.8
20260501201804 16 313 0.0 8.0 0.25 6.25 6.20 1 1009.5
20260501200825 16 290 0.0 8.0 0.13 6.20 6.15 1 1010.3
20260501195805 16 215 0.0 4.8 0.20 6.20 6.15 1 1010.6
20260501194747 16 323 0.0 1.6 0.10 6.15 6.10 1 1010.3
20260501192601 16 331 0.0 0.0 0.00 6.10 6.05 1 1009.6
20260501191623 16 339 0.0 8.0 0.00 6.10 5.99 1 1009.9
20260501190626 16 333 0.0 8.0 0.00 6.07 5.99 1 1009.3
20260501185600 17 338 0.0 6.4 0.00 6.07 5.99 1 1008.9
20260501184610 17 260 0.0 12.9 0.00 6.07 5.99 1 1009.6
20260501182411 17 126 1.6 12.9 0.10 6.07 5.99 1 1008.6
20260501180221 17 329 0.0 11.3 0.00 6.02 5.97 1 1007.7
20260501175155 17 263 0.0 11.3 0.00 6.02 5.97 1 1009.4
20260501174205 17 340 0.0 6.4 0.10 6.02 5.94 1 1009.7
20260501173139 17 218 0.0 4.8 0.10 6.02 5.94 1 1010.7
20260501171033 16 311 0.0 17.7 0.00 5.97 5.87 1 1011.1
20260501170002 17 19 0.0 11.3 0.00 5.97 5.87 1 1010.4
20260501165009 17 346 0.0 11.3 0.00 5.97 5.87 1 1011.1
20260501163955 17 312 0.0 12.9 0.13 5.97 5.87 1 1011.5
20260501155517 17 194 0.0 3.2 0.48 5.66 5.61 1 1013.0
20260501154542 17 220 0.0 1.6 1.32 5.49 5.41 1 1013.0